Other Surface Observations
Issued by NWS

Home | Current Version | Previous Version | Text Only | Print | Product List | Glossary On
Versions: 1 2 3 4 5 6 7 8 9 10 11 12 13 14 15 16 17 18 19 20 21 22 23 24 25 26 27 28 29 30 31 32 33 34 35 36 37 38 39 40 41 42 43 44 45 46 47 48 49 50
766
SXUS52 KTAE 261518
OSOTAE
OSOTAE
North Florida/South Alabama/Southwest Georgia Weather Roundup
National Weather Service Tallahassee Florida
1100 AM EDT THU MAY 26 2016

Note: "fair" indicates few or no clouds below 12,000 feet with no
significant weather and/or obstructions to visibility.

!FLZ017-115-028-034-025-261600
...North Florida...

CITY           SKY/WX    TMP DP  RH WIND       PRES   REMARKS
TALLAHASSEE    MOSUNNY   83  66  56 S6        30.18S
APALACHICOLA   MOSUNNY   81  70  69 S10       30.18S
PERRY          SUNNY     81  62  51 E3        30.19F
CROSS CITY       N/A     82  60  47 MISG      30.18F
JACKSONVILLE   MOSUNNY   82  64  54 E10       30.18F
$$

!FLZ112-006-005-002-011-261600
...Florida Panhandle...

CITY           SKY/WX    TMP DP  RH WIND       PRES   REMARKS
MARIANNA       SUNNY     83  69  62 S10       30.16F
BONIFAY        NOT AVBL
PANAMA CITY NW FAIR      82  71  69 SE8       30.15F
TYNDALL AFB    MOSUNNY   81  70  70 SE10      30.16F
TYND DRONE APT FAIR      81  71  72 SE13G21   30.16F
DE FUNIAK SPR  PTSUNNY   80  68  67 S6        30.18S
EGLIN AFB      PTSUNNY   80  33  18 E12       30.15S
DESTIN         CLOUDY    82  74  76 SE10      30.16S
HURLBURT       PTSUNNY   81  70  69 SE14      30.14S
CRESTVIEW      CLOUDY    81  70  69 E8        30.17F
PENSACOLA      PTSUNNY   80  70  71 S8        30.16R
$$

!ALZ063-066-261600
...South Alabama...

CITY           SKY/WX    TMP DP  RH WIND       PRES   REMARKS
DOTHAN         MOSUNNY   82  65  56 S6        30.21S
OZARK CAIRNS   MOSUNNY   82  69  66 S8        30.17F
FT RUCKER HELI SUNNY     80  67  64 VRB5      30.16F
RUCKER HELI 3  FAIR      80  67  63 S10       30.18F
RUCKER HELI 2  NOT AVBL
FLORALA APT    MOSUNNY   78  69  73 S9        30.18F
ANDALUSIA      CLOUDY    79  70  73 SE5       30.16F
TROY           MOSUNNY   80  70  71 S7        30.18F
EUFALA         FAIR      84  65  52 S9        30.17F
MOBILE         CLOUDY    79  70  74 SE7       30.15F
$$

!GAZ120>161-261600
...Southwest and South Central Georgia...

CITY           SKY/WX    TMP DP  RH WIND       PRES   REMARKS
THOMASVILLE    FAIR      79  59  50 S6        30.21S
BAINBRIDGE     SUNNY     81  66  61 S9        30.19S
MOODY AFB      SUNNY     82  61  49 VRB6      30.19F
VALDOSTA       SUNNY     81  63  54 SE6       30.19F
MOULTRIE       SUNNY     81  55  41 SE5       30.21S
BLAKELY        SUNNY     82  70  65 CALM      30.19S
ALBANY         SUNNY     83  64  52 MISG      30.21S
TIFTON         FAIR      80  58  46 SE6       30.20S
FITZGERALD     CLOUDY    82  58  44 SW8       30.23S
CORDELE        CLOUDY    83  61  47 SW9       30.21S
AMERICUS       FAIR      81  61  50 SW5       30.22S
HOMERVILLE     FAIR      81  63  54 SE5       30.20F
$$

!GMZ750-755-770-775-261600
...Coastal and Buoy Obs...

STATION/POSITION TIME  TEMP    WIND        PRES    VSBY  WAVE
                       AIR SEA DIR/SP/G                  HT/PER
                 (UTC) (F)     (DEG/KT/KT) (MB)    (MI)  (FT/S)
KEATON BEACH     1500   78     180/  6/  8 1021.7F
CEDAR KEY        1500   76     100/  3/  4 1022.3F
C TOWER          1500   77     170/  8/  9 1022.5R
APALACHICOLA BUO 1450   77 78  130/ 10/ 12 1021.2R         4/ 6
PANAMA CITY BUOY 1450   80 80  140/ 12/ 14 1020.7F         2/ 4
MOBILE BUOY      1500   78 79  110/  6/  8 1020.5R
ORANGE BCH AL BU 1450   78 80  130/  8/ 10 1020.2R         2/ 5
$$




USA.gov is the U.S. government's official web portal to all federal, state and local government web resources and services.